Location: Waco, TX
(31.5480°N, 97.1670°W)
Time: 11:31:53
(UTC-06:00)

ISS - Pass Details

Date: 10 January 2018
Orbit: 402 x 407 km, 51.6° (Epoch: 19 January)

Event Time Altitude Azimuth Distance (km) Brightness Sun altitude
Rises 08:50:59 0° 313° (NW) 2,325 -0.6 14.1°
Reaches altitude 10° 08:53:04 10° 312° (NW) 1,463 -1.6 14.4°
Maximum altitude 08:56:21 74° 227° (SW) 424 -3.5 15.0°
Drops below altitude 10° 08:59:36 10° 141° (SE) 1,457 1.1 15.5°
Sets 09:01:41 0° 140° (SE) 2,314 1.7 15.9°
